User: anonymous   Login
Location: Mount Graham
(32.7016°N, 109.8912°W)
Time: 01:14:32
(UTC-07:00)
Language:

Cosmos 1340 - Orbit

View from above orbital plane
View from above orbital plane
View from above satellite
View from above satellite

Ground track
Ground track

The orbit data is extracted from the following two-line orbital elements,

1 13067U 82013A   16119.79362834  .00001813  00000-0  87130-4 0  9997
2 13067  81.1867 257.1037 0004444 119.6804 353.8750 15.18336638864913
Epoch (UTC): 28 April 2016 19:02:49
Eccentricity: 0.0004444
inclination: 81.1867°
perigee height: 508 km
apogee height: 514 km
right ascension of ascending node: 257.1037°
argument of perigee: 119.6804°
revolutions per day: 15.18336638
mean anomaly at epoch: 353.8750°
orbit number at epoch: 86491

The dashed part of the orbit path shows where the satellite is in the earth's shadow,  

DLR